Starlink 11545

operational
NORAD ID: 63016 Int'l Des: 2025-032 Owner: SPXS Country: US Constellation: starlink
LEOCIRCULAR

Über Starlink 11545

Beschreibung wird geladen...

Live-Position

3D-Globus wird geladen...

Nächste Überflüge

Höhenverlauf

Altitude vs Time

uPlot chart will show altitude changes over time

Zweizeiliger Elementsatz

1 63016U 25032M 25259.77895309 .00197955 00000-0 15105-2 0 9999
2 63016 43.0028 163.4815 0002906 267.4002 92.6533 15.70826742 34873
Epoch: 16. Sept. 2025 • Age: 20 hours

Aktueller Status

Höhe 359.1 km
Geschwindigkeit 7.70 km/s
Subsatellitenpunkt 37.06°N, 6.62°W
Startdatum 15. Feb. 2025
Alter 0.5 years
Typ internet

Technische Details

Klassifizierung Payload
Masse 960.00 kg
Trockenmasse 910.00 kg
Gesamtmasse 960.00 kg
Länge 0.30 m
Durchmesser 4.10 m
Spannweite 29.00 m
Form Box + pan
Hersteller SPXS
Bus-Typ Starlink V2MD
Phasenstatus In Orbit
Besitzer/Staat SPXS/US

Große Konstellationen

Loading constellations...